Home   Weather   Naha   Past weeks

Flag for Japan Past Weather in Naha, Okinawa, Japan — Yesterday and Last 2 Weeks

Now
79 °F

Passing clouds.


Feels Like: 82 °F
Forecast: 72 / 76 °F
Wind: 17 mph from Southwest

Location: Naha Airport

Current Time: May 25, 2017 at 2:47:32 am

Latest Report: May 25, 2017 at 2:00 am


Visibility: N/A

Pressure: 29.62 "Hg

Humidity: 84%

Dew Point: 73 °F

Location of NahaLocation

Past Weather in Naha — Graph

°F

Naha Temperature Yesterday

Maximum temperature yesterday: 82 °F (at 1:00 pm)
Minimum temperature yesterday: 75 °F (at 1:00 am)
Average temperature yesterday: 78 °F

High & Low Weather Summary for the Past Weeks

 TemperatureHumidityPressure
High84 °F (May 11, 2:00 pm)94% (May 10, 1:00 am)30.07 "Hg (May 10, 1:00 am)
Low66 °F (May 16, 4:42 pm)32% (May 10, 1:00 pm)29.62 "Hg (May 25, 1:30 am)
Average76 °F76%29.85 "Hg
* Reported May 10 1:00 am — May 25 1:30 am, Naha. Weather by CustomWeather, © 2017

Note: Actual official high and low records may vary slightly from our data, if they occured in-between our weather recording intervals... More about our weather records

Advertising

Naha Weather History for the Previous 24 Hours

Scroll right to see more
 ConditionsComfort  
Time TempWeatherWind HumidityBarometerVisibility
1:30 am
Thu, May 25
79 °FPassing clouds.18 mph89%29.62 "HgN/A
1:00 am79 °FPartly cloudy.18 mph89%29.65 "HgN/A
12:30 am79 °FPartly cloudy.17 mph84%29.65 "HgN/A
12:00 am79 °FPassing clouds.16 mph84%29.65 "HgN/A
11:30 pm
Wed, May 24
77 °FPartly cloudy.17 mph89%29.68 "HgN/A
11:00 pm77 °FPartly cloudy.18 mph89%29.68 "HgN/A
10:30 pm77 °FPassing clouds.20 mph89%29.68 "HgN/A
10:00 pm77 °FPartly cloudy.18 mph89%29.68 "HgN/A
9:30 pm77 °FSprinkles. Partly cloudy.16 mph89%29.68 "HgN/A
9:00 pm77 °FSprinkles. Partly cloudy.15 mph89%29.68 "HgN/A
8:30 pm79 °FSprinkles. Partly cloudy.15 mph84%29.68 "HgN/A
8:00 pm79 °FPassing clouds.14 mph79%29.68 "HgN/A
7:30 pm79 °FPartly cloudy.14 mph79%29.65 "HgN/A
7:00 pm79 °FPartly sunny.12 mph79%29.65 "HgN/A
6:30 pm79 °FPartly sunny.12 mph79%29.65 "HgN/A
6:00 pm79 °FPartly sunny.12 mph79%29.65 "HgN/A
5:30 pm79 °FPartly sunny.12 mph79%29.65 "HgN/A
4:30 pm79 °FPartly sunny.10 mph79%29.65 "HgN/A
4:00 pm79 °FPartly sunny.12 mph79%29.65 "HgN/A
3:30 pm81 °FPartly sunny.12 mph74%29.65 "HgN/A
3:00 pm81 °FBroken clouds.13 mph74%29.68 "HgN/A
2:30 pm82 °FScattered clouds.14 mph70%29.68 "HgN/A
2:00 pm81 °FPassing clouds.13 mph74%29.68 "HgN/A
1:30 pm81 °FScattered clouds.13 mph74%29.68 "HgN/A
1:00 pm82 °FScattered clouds.12 mph70%29.68 "HgN/A
12:30 pm81 °FPartly sunny.13 mph74%29.71 "HgN/A
12:00 pm81 °FPartly sunny.13 mph74%29.71 "HgN/A
11:30 am81 °FBroken clouds.13 mph70%29.71 "HgN/A
11:00 am81 °FBroken clouds.13 mph74%29.74 "HgN/A
10:30 am81 °FScattered clouds.12 mph70%29.74 "HgN/A
10:00 am79 °FScattered clouds.9 mph79%29.74 "HgN/A
9:30 am77 °FScattered clouds.9 mph83%29.74 "HgN/A
9:00 am79 °FScattered clouds.7 mph79%29.74 "HgN/A
8:30 am77 °FScattered clouds.7 mph79%29.74 "HgN/A
8:00 am79 °FScattered clouds.6 mph79%29.74 "HgN/A
7:30 am77 °FScattered clouds.7 mph83%29.74 "HgN/A
7:00 am77 °FScattered clouds.5 mph79%29.74 "HgN/A
6:30 am75 °FScattered clouds.3 mph83%29.71 "HgN/A
6:00 am75 °FScattered clouds.3 mph83%29.71 "HgN/A
5:30 am75 °FPassing clouds.1 mph83%29.74 "HgN/A
5:00 am75 °FPassing clouds.2 mph83%29.71 "HgN/A
4:30 am75 °FPassing clouds.5 mph83%29.71 "HgN/A
4:00 am75 °FPassing clouds.2 mph83%29.71 "HgN/A
3:30 am75 °FPassing clouds.5 mph83%29.71 "HgN/A
3:00 am75 °FPassing clouds.2 mph83%29.74 "HgN/A
2:30 am75 °FPartly cloudy.5 mph89%29.74 "HgN/A
2:00 am77 °FPassing clouds.2 mph79%29.74 "HgN/A
Weather by CustomWeather, © 2017

See weather overviewHow to use our weather pages